Tracking 18852 objects as of 24-Nov-2017
HD Live streaming from Space Station
objects crossing your sky now

FENGYUN 1C DEB

Track FENGYUN 1C DEB now!
10-day predictions


NORAD ID: 41822
Int'l Code: 1999-025EXZ
Perigee: 817.0 km
Apogee: 909.8 km
Inclination: 98.9 °
Period: 102.1 minutes
Semi major axis: 7234 km
RCS: Unknown
Launch date: May 10, 1999
Source: People's Republic of China (PRC)
Launch site: Taiyaun Space Center, China (TSC)

Note: This is SATELLITE DEBRIS
aabbcc
Your satellite tracking list
Your tracking list is empty




NASA's NSSDC Master Catalog

Two Line Element Set (TLE):
1 41822U 99025EXZ 17328.11636755  .00000862  00000-0  49597-3 0  9990
2 41822  98.9468  21.5923 0064131 306.2026  53.3225 14.10921400 57968
Source of the keplerian elements: AFSPC